Weather observations for the past three days for
Cherry Capital Airport
Imperial (Metric)
Date Time (edt) Wind (mph) Vis. (mi.) Weather Sky Cond. Temperature (ºF) Relative Humidity Wind Chill (°F) Heat Index (°F) Pressure Precipitation (in)
Air Dwpt 6 hour altimeter (in) sea level (mb) 1 hr 3 hr 6 hr
Max. Min.
16 07:53 S 9 G 20 10.00 Mostly Cloudy FEW110 BKN120 66.9 50 66.9 64.9 55% 29.98 1015.1
16 06:53 S 9 10.00 Partly Cloudy FEW110 SCT120 64.9 50 59% 29.99 1015.1
16 05:53 S 8 10.00 Overcast OVC110 64.9 50 59% 29.99 1015.4
16 04:53 Vrbl 5 10.00 Partly Cloudy SCT120 64.9 48.9 56% 30 1015.7
16 03:53 SE 8 10.00 Mostly Cloudy FEW065 BKN120 66 48.9 54% 30.02 1016.4
16 02:53 Vrbl 5 10.00 Mostly Cloudy FEW060 FEW085 BKN110 66 48 52% 30.03 1016.7
16 01:53 Vrbl 3 10.00 Overcast OVC110 66 48.9 75 66 54% 30.04 1017.0
16 00:53 Vrbl 3 10.00 Overcast BKN095 OVC120 66.9 48 51% 30.04 1017.0
15 23:53 SE 9 10.00 Mostly Cloudy BKN120 68 48 49% 30.04 1017.0
15 22:53 SE 8 G 18 10.00 Mostly Cloudy BKN120 70 48.9 47% 30.05 1017.3
15 21:53 Vrbl 7 10.00 Overcast BKN150 OVC220 72 48.9 44% 30.05 1017.2
15 20:53 SE 7 10.00 Overcast FEW120 OVC220 73.9 51.1 45% 30.05 1017.3
15 19:53 SE 7 10.00 Overcast FEW180 OVC250 75 51.1 82 75 43% 78 30.06 1017.8
15 18:53 SE 9 10.00 Overcast OVC250 78.1 52 40% 79 30.07 1018.3
15 17:53 Vrbl 6 10.00 Overcast FEW190 OVC250 79 48.9 35% 79 30.08 1018.5
15 16:53 Vrbl 6 10.00 Overcast FEW050 FEW140 OVC250 79 48.9 35% 79 30.09 1018.9
15 15:53 SE 8 10.00 Mostly Cloudy FEW065 FEW160 BKN250 81 48.9 33% 80 30.11 1019.6
15 14:53 SE 8 10.00 Mostly Cloudy FEW065 FEW160 BKN250 79 46.9 32% 79 30.12 1019.7
15 13:53 SE 9 10.00 Mostly Cloudy FEW120 BKN250 78.1 46.9 78.1 57 33% 78 30.14 1020.5
15 12:53 SE 7 10.00 Partly Cloudy FEW120 SCT220 75.9 46.9 36% 78 30.17 1021.7
15 11:53 SE 5 10.00 Partly Cloudy FEW110 SCT220 73 46.9 40% 30.19 1022.3
15 10:53 Vrbl 6 10.00 A Few Clouds FEW110 FEW220 70 46 42% 30.19 1022.2
15 09:53 SE 7 10.00 A Few Clouds FEW090 FEW200 66 46.9 50% 30.2 1022.4
15 08:53 SE 6 10.00 A Few Clouds FEW090 FEW150 61 46.9 60% 30.21 1022.8
15 07:53 Calm 10.00 A Few Clouds FEW090 FEW120 57 48.9 57 48 74% 30.2 1022.7
15 06:53 Calm 10.00 A Few Clouds FEW060 FEW120 51.1 48 89% 30.18 1022.1
15 05:53 S 3 10.00 Fair CLR 48 46 93% 30.15 1021.1
15 04:53 Calm 10.00 Fair CLR 48.9 48 97% 30.13 1020.4
15 03:53 Calm 10.00 Fair CLR 51.1 48.9 92% 30.12 1020.1
15 02:53 Calm 10.00 Fair CLR 52 48.9 89% 30.12 1020.1
15 01:53 Calm 10.00 Fair CLR 53.1 48.9 71.1 52 86% 30.12 1020.0
15 00:53 Calm 10.00 Fair CLR 54 50 87% 30.12 1020.0
14 23:53 Calm 10.00 Fair CLR 57.9 52 81% 30.1 1019.4
14 22:53 NE 5 10.00 Fair CLR 63 54 73% 30.1 1019.1
14 21:53 NE 5 10.00 Fair CLR 66 51.1 59% 30.09 1018.8
14 20:53 N 5 10.00 Fair CLR 69.1 48.9 49% 30.09 1018.8
14 19:53 N 8 10.00 A Few Clouds FEW030 71.1 48 73.9 71.1 44% 30.08 1018.3
14 18:53 N 10 10.00 A Few Clouds FEW050 73 48 41% 30.06 1017.9
14 17:53 NE 8 10.00 A Few Clouds FEW050 73 48 41% 30.05 1017.6
14 16:53 NE 8 10.00 A Few Clouds FEW050 73 45 37% 30.05 1017.4
14 15:53 N 9 G 20 10.00 A Few Clouds FEW110 73 42.1 33% 30.05 1017.4
14 14:53 N 12 10.00 A Few Clouds FEW055 FEW110 73.9 44.1 34% 30.05 1017.2
14 13:53 N 10 10.00 A Few Clouds FEW055 FEW110 72 48 73 62.1 43% 30.04 1017.2
14 12:53 NE 8 10.00 A Few Clouds FEW045 FEW095 72 50 46% 30.03 1016.9
14 11:53 N 9 10.00 A Few Clouds FEW035 FEW095 66.9 52 59% 30.02 1016.6
14 10:53 NE 8 10.00 A Few Clouds FEW035 FEW095 66.9 54 63% 30.02 1016.4
14 09:53 NE 8 10.00 A Few Clouds FEW095 64 54 70% 30 1015.9
14 08:53 NE 8 10.00 Partly Cloudy SCT095 63 53.1 70% 29.99 1015.5
14 07:53 Calm 10.00 Partly Cloudy SCT095 62.1 53.1 62.1 54 73% 29.97 1014.8
14 06:53 NW 5 10.00 Partly Cloudy SCT090 60.1 52 75% 29.96 1014.2
14 05:53 Calm 10.00 Fair CLR 54 52 93% 29.92 1013.1
14 04:53 Calm 10.00 Fair CLR 55 53.1 93% 29.91 1012.6
14 03:53 S 3 10.00 Partly Cloudy SCT120 57.9 55.9 93% 29.9 1012.3
14 02:53 SW 3 10.00 Overcast FEW055 BKN100 OVC110 61 55.9 84% 29.9 1012.3
14 01:53 Calm 10.00 Partly Cloudy SCT110 60.1 55.9 78.1 57.9 86% 29.88 1011.7
14 00:53 Calm 10.00 Fair CLR 60.1 57 90% 29.89 1011.7
13 23:53 Calm 10.00 Fair CLR 60.1 57 90% 29.88 1011.6
13 22:53 Calm 10.00 Fair CLR 63 57 81% 29.86 1010.7
13 21:53 Calm 10.00 A Few Clouds FEW070 66 57.9 75% 29.83 1009.6
13 20:53 N 6 10.00 A Few Clouds FEW070 69.1 57.9 68% 29.8 1008.7
13 19:53 N 6 10.00 Mostly Cloudy BKN070 78.1 55 82.9 77 45% 79 29.76 1007.4
13 18:53 NW 12 G 21 10.00 Mostly Cloudy SCT044 BKN055 BKN250 80.1 55 42% 80 29.74 1006.6
13 17:53 W 20 G 29 10.00 Mostly Cloudy FEW033 FEW170 BKN250 82.9 64.9 55% 85 29.72 1006.1
13 16:53 W 20 G 29 10.00 Overcast FEW030 OVC250 82 66.9 60% 85 29.72 1006.0
13 15:53 W 15 G 30 10.00 Overcast BKN030 OVC200 81 66 61% 83 29.71 1005.8
13 14:53 SW 17 G 26 10.00 Overcast FEW036 OVC250 80.1 64.9 60% 82 29.71 1005.7
13 13:53 SW 17 G 31 10.00 Overcast BKN042 OVC250 82 64 84.9 70 55% 84 29.71 1005.8
13 12:53 SW 15 G 29 10.00 Overcast BKN045 OVC250 84 64 51% 85 29.71 1005.6
13 11:53 SW 18 G 28 10.00 Mostly Cloudy FEW080 BKN250 84 62.1 48% 85 29.71 1005.8
13 10:53 SW 8 G 20 10.00 A Few Clouds FEW060 FEW140 81 62.1 53% 82 29.7 1005.3
13 09:53 SW 9 G 20 10.00 Partly Cloudy FEW040 FEW100 SCT220 77 62.1 60% 79 29.7 1005.2
13 08:53 S 8 10.00 Partly Cloudy FEW130 SCT220 73 60.1 64% 29.71 1005.7
Date Time (edt) Wind (mph) Vis. (mi.) Weather Sky Cond. Air Dwpt Max. Min. Relative Humidity Wind Chill (°F) Heat Index (°F) altimeter (in) sea level (mb) 1 hr 3 hr 6 hr
6 hour
Temperature (ºF) Pressure Precipitation (in)